Theta_e
294 292 292 292 292 291 290 290 290 289 289 289 289 288 288 288 288 288 288 288 288 288 288 287 287 287 287 287 287 287 287 287 288 288 288 288 288 287 287 286 286 285 285 285 284 284 284 283 283 283 283 282 281 281 280 280 279 278 278 277 277 278 278 278 277 277 279 280 281 281 281 281 281 281 282 281 281 282 282 283 283 282 282 281 280
294 292 292 292 292 291 290 290 290 290 289 289 289 289 289 289 289 289 289 288 288 288 288 287 287 287 287 287 287 286 286 286 287 287 287 287 288 287 287 287 286 285 285 284 284 284 283 283 282 282 282 282 281 280 280 280 279 278 277 277 277 278 278 278 277 277 279 280 280 281 282 283 283 282 282 281 281 282 282 282 282 281 280 280 280
295 294 293 292 291 291 290 290 290 290 290 290 290 290 290 290 289 289 289 289 288 288 288 287 287 287 287 287 286 286 286 285 286 286 286 286 286 286 286 286 285 284 284 283 283 283 282 282 282 281 281 281 280 280 279 279 278 277 277 276 277 277 277 277 277 277 278 279 279 281 282 283 283 283 282 281 280 281 281 281 280 280 279 279 279
296 295 295 293 291 290 290 290 290 290 290 290 290 290 290 290 289 289 289 288 288 287 287 287 287 286 286 286 286 286 285 285 285 286 286 286 285 285 285 285 284 284 283 283 282 282 281 281 281 280 280 280 279 279 278 277 277 276 276 276 276 277 277 277 277 276 276 277 279 281 282 282 282 284 283 281 280 280 280 280 279 279 278 278 278
296 296 296 295 292 291 290 290 290 290 290 290 290 290 290 289 289 289 288 288 287 287 287 286 286 286 285 285 285 285 285 285 285 285 285 285 285 284 284 284 284 283 283 283 282 281 281 280 280 279 279 279 278 278 277 277 276 276 275 275 275 275 276 276 276 275 275 275 277 278 280 281 282 282 281 281 281 280 280 280 279 278 278 278 278
295 296 296 295 293 292 291 290 289 289 289 289 289 289 289 288 288 288 287 287 287 286 286 285 285 284 284 284 285 285 285 286 286 286 286 285 285 284 283 282 283 283 283 282 282 282 281 280 280 279 278 278 277 277 277 276 276 275 274 274 274 274 274 275 275 275 274 274 275 276 277 278 279 279 278 280 281 280 279 279 278 278 277 277 277
295 295 294 294 293 292 292 291 290 289 289 288 288 288 288 287 287 287 286 286 286 286 286 285 284 284 284 284 284 285 285 286 285 285 285 285 284 283 282 282 281 282 282 281 281 281 281 280 280 279 278 278 277 277 276 276 275 274 274 273 273 273 274 274 274 274 274 274 274 274 275 275 276 276 277 278 279 279 280 279 278 277 277 276 276
295 295 294 294 293 292 292 291 290 289 288 287 287 287 287 287 287 286 286 286 286 286 285 285 284 284 284 284 284 284 284 284 284 284 284 284 283 283 282 282 281 281 281 281 280 280 280 280 279 278 278 277 277 276 276 275 275 274 273 273 273 273 273 273 273 273 274 274 274 274 274 274 274 274 275 276 276 277 278 278 278 277 277 276 276
294 294 295 294 292 292 291 289 288 288 288 287 287 287 287 287 287 286 286 286 285 285 285 284 284 283 283 283 283 284 284 284 284 283 283 283 283 283 282 282 281 280 280 280 280 279 279 279 279 278 277 277 276 276 275 275 274 273 273 273 272 272 272 272 272 272 273 273 274 274 273 273 274 274 274 274 275 275 276 277 278 278 277 276 276
294 294 294 293 291 290 289 288 287 287 287 287 287 287 287 286 286 286 285 285 285 285 284 284 283 283 283 283 283 283 283 283 283 283 283 283 283 283 282 282 282 281 280 279 280 279 279 278 278 277 277 277 276 275 275 274 274 273 272 272 272 271 272 271 271 272 272 272 272 272 273 273 273 274 273 274 274 275 275 276 277 277 277 277 276
293 293 292 291 289 288 287 287 287 287 287 287 286 286 286 286 286 285 285 284 284 284 284 284 283 283 283 283 283 283 283 283 283 283 283 283 283 283 282 282 282 281 280 279 279 279 278 278 277 277 277 276 275 275 274 274 273 272 272 271 271 271 271 271 271 271 271 271 271 271 271 272 273 273 273 273 274 274 274 275 276 276 276 276 275
292 291 291 289 288 287 287 287 287 286 286 286 286 285 285 285 285 284 283 283 283 282 282 282 282 282 282 282 282 282 282 282 282 282 282 282 282 282 282 282 282 282 281 280 279 278 278 277 277 276 276 275 275 274 274 273 272 272 272 271 271 271 270 270 270 270 270 270 270 270 270 271 271 272 272 272 273 273 273 274 275 275 274 274 274
291 291 290 289 288 288 287 287 287 286 285 285 284 284 283 283 283 282 281 280 280 280 280 280 280 281 281 281 281 281 281 282 282 282 282 282 282 282 282 282 282 282 281 281 280 278 278 277 276 276 275 275 274 274 273 272 272 272 271 271 271 270 270 270 270 270 269 269 269 269 270 270 270 270 271 271 271 271 272 272 273 273 273 273 273
290 289 289 288 288 288 287 287 286 285 284 283 283 282 282 281 280 280 279 278 278 278 278 278 278 278 278 279 279 279 280 280 280 281 281 281 281 281 281 281 281 281 281 280 280 279 277 277 276 275 275 274 273 273 272 272 272 271 271 271 270 270 270 269 269 269 269 269 269 269 269 269 269 269 269 270 270 270 271 271 271 272 272 272 273
289 288 287 288 287 287 286 286 285 284 283 282 281 281 280 279 278 278 277 277 277 276 276 276 276 276 276 276 277 277 277 278 278 279 279 280 280 280 280 280 280 280 280 279 279 278 277 276 275 275 274 274 273 273 272 272 271 271 271 270 270 270 269 269 269 269 268 268 268 268 268 268 268 268 269 269 269 269 270 270 270 270 270 271 272
287 287 287 287 287 286 285 284 283 283 282 281 280 279 278 278 277 277 276 276 276 275 275 275 275 275 275 275 275 275 275 275 276 276 277 277 278 279 279 279 279 279 279 279 278 277 276 275 274 274 274 273 273 272 271 271 271 270 270 270 270 269 269 269 269 268 268 268 267 267 267 267 268 268 268 268 268 268 269 269 269 270 269 270 271
287 287 287 287 286 285 284 283 283 282 281 280 278 278 277 277 276 276 276 275 275 275 274 274 274 274 274 274 274 274 274 274 274 275 275 276 276 277 278 279 279 279 278 277 277 276 275 274 274 273 273 272 272 271 271 271 270 270 270 270 270 269 269 269 268 268 268 268 267 267 267 267 267 267 267 267 267 268 268 268 268 269 269 269 269
287 287 287 286 285 284 283 282 281 281 280 278 277 276 276 276 276 276 275 275 274 274 274 274 274 273 273 273 273 273 273 273 273 274 274 275 276 277 277 278 278 278 277 276 276 275 274 274 273 272 272 272 271 271 271 270 270 270 270 270 269 269 269 268 268 268 268 267 267 267 267 267 267 267 267 267 267 267 267 267 268 268 268 268 269
286 286 286 286 285 284 283 281 280 279 278 277 276 276 275 275 275 275 274 274 274 273 273 273 273 273 273 273 273 273 273 273 273 273 274 274 274 275 276 276 276 275 275 274 274 274 273 272 272 272 271 271 271 270 270 270 270 270 270 269 269 269 268 268 268 268 267 267 267 267 266 266 266 266 266 266 266 266 267 267 267 267 267 268 268
287 286 286 286 285 283 282 281 280 279 278 277 276 275 275 275 275 274 274 274 273 273 273 273 273 272 272 272 272 272 272 272 273 273 273 273 273 273 274 274 274 274 273 273 273 272 272 272 271 271 271 271 270 270 270 270 270 270 270 269 269 268 268 268 268 267 267 267 266 266 266 266 266 266 266 266 266 266 266 266 266 266 267 267 267
287 286 286 285 284 282 281 280 279 278 277 276 276 275 275 274 274 274 274 273 273 273 273 273 272 272 272 272 272 272 272 272 272 272 272 272 272 272 272 272 272 272 272 272 272 271 271 271 271 271 271 271 270 270 270 270 270 269 269 269 269 268 268 268 268 267 267 266 266 266 266 266 265 265 266 266 266 266 266 266 266 266 266 266 266
287 286 286 285 283 282 280 279 278 278 277 276 275 275 274 274 274 274 274 273 273 273 272 272 272 272 272 271 271 271 272 272 272 272 272 272 272 272 272 271 271 271 271 271 271 271 271 271 271 271 271 270 270 270 270 270 269 269 269 269 268 268 268 268 267 267 267 266 266 266 266 265 265 265 265 265 265 265 265 265 265 265 266 266 266
287 286 286 284 283 281 280 279 278 278 277 276 275 275 274 274 273 273 273 273 272 272 272 272 272 272 271 271 271 271 271 271 272 272 272 271 271 272 272 272 271 271 271 271 271 271 271 271 271 271 271 270 270 270 270 269 269 269 269 268 268 268 268 267 267 267 266 266 266 265 265 265 265 265 265 264 264 264 264 265 265 265 265 265 265
287 286 285 283 282 281 280 279 278 278 277 276 275 275 274 274 273 273 273 273 272 272 272 271 271 271 271 270 270 270 270 270 271 271 271 271 271 271 271 271 271 271 271 271 271 271 271 271 271 271 270 270 270 269 269 269 269 268 268 268 268 268 267 267 267 266 266 266 266 265 265 265 265 264 264 264 264 264 264 264 264 264 265 265 265
286 285 284 283 282 281 280 279 279 278 277 276 275 274 274 273 273 272 273 273 272 271 271 271 271 270 270 270 270 269 269 270 270 270 269 270 270 270 270 271 271 271 271 271 271 271 271 271 271 270 270 270 270 269 269 268 268 268 268 268 268 267 267 267 266 266 266 265 265 265 265 264 264 264 264 264 264 264 264 264 264 264 264 264 264
285 284 283 282 282 281 280 279 278 278 277 276 275 274 273 273 272 272 272 272 272 271 271 270 270 270 269 269 269 269 269 269 268 268 268 269 269 269 269 270 270 270 270 270 270 270 270 270 270 270 270 270 269 269 269 268 268 268 268 267 267 267 266 266 266 266 265 265 265 264 264 264 264 263 263 263 263 263 263 263 263 264 264 264 264
286 284 283 282 282 281 280 279 278 277 276 275 274 274 273 272 272 271 272 272 272 271 270 270 270 269 269 269 269 269 268 268 268 267 268 268 268 268 268 269 269 269 269 269 269 269 269 269 269 269 269 269 269 268 268 268 268 267 267 267 266 266 266 266 265 265 265 264 264 264 264 263 263 263 263 263 262 262 262 262 262 263 263 263 263
285 284 283 282 281 281 280 279 278 277 276 275 274 273 272 272 271 271 271 272 271 271 270 270 269 269 269 268 268 268 267 267 267 267 267 267 267 267 267 267 268 268 268 268 268 268 268 268 268 268 268 268 268 268 267 267 267 267 266 266 266 266 265 265 265 264 264 264 264 264 264 264 264 263 263 263 263 262 262 262 262 262 262 262 263
285 284 283 282 282 281 280 279 277 277 276 274 273 273 272 271 271 271 271 271 271 270 270 269 269 269 268 268 268 267 267 267 267 267 267 267 266 266 266 266 266 267 267 267 267 267 267 267 267 267 267 267 267 267 266 266 266 266 266 265 265 265 265 265 264 264 264 264 264 264 264 264 264 264 264 264 264 263 262 262 262 262 262 262 263
286 285 283 282 282 281 280 278 277 276 275 274 273 272 272 271 271 271 271 271 270 270 269 269 268 268 268 267 267 267 267 266 266 266 266 266 266 266 266 266 266 266 266 266 266 266 266 266 266 266 266 266 266 266 266 266 266 266 265 265 265 265 265 265 265 265 265 265 264 264 264 264 264 264 264 264 264 264 263 263 263 263 263 263 263
286 285 283 282 282 281 280 278 277 276 275 274 273 272 271 271 270 270 270 270 269 269 269 268 268 268 267 267 267 267 266 266 266 266 266 266 265 265 265 265 265 265 265 265 265 265 265 265 265 265 265 265 265 265 265 265 266 266 266 266 266 266 266 266 265 265 265 265 265 265 265 265 264 264 264 264 264 264 264 264 263 263 263 263 263
286 285 283 282 281 280 279 278 277 276 274 273 272 271 271 270 270 270 269 269 268 268 268 267 267 267 267 267 266 266 266 266 265 265 265 265 265 265 265 265 265 265 265 265 265 265 265 265 265 265 264 264 264 264 264 265 266 266 267 267 267 267 266 266 266 266 265 265 265 265 265 264 264 264 264 264 264 264 264 264 264 264 264 264 264
286 284 283 282 281 280 279 277 276 275 273 272 272 271 270 270 269 269 268 268 267 267 267 267 267 267 266 266 266 266 265 265 265 265 265 265 265 264 264 264 264 264 264 264 264 264 264 264 264 264 264 264 264 264 264 265 266 266 267 267 267 267 267 266 266 266 266 265 265 265 265 264 264 264 264 264 264 264 264 264 264 264 265 265 265
286 284 283 282 281 280 278 277 276 274 273 272 271 270 270 269 269 268 267 267 267 266 266 266 266 266 266 266 265 265 265 265 265 265 264 264 264 264 264 264 264 264 264 263 264 263 263 264 263 263 263 263 263 264 263 264 265 265 266 266 266 266 266 266 266 266 266 265 265 265 265 264 264 264 264 264 264 264 264 264 264 264 264 264 265
285 283 282 282 281 279 277 276 275 273 272 271 270 270 269 268 268 267 267 266 266 266 266 265 266 265 265 265 265 265 265 264 264 264 264 264 264 263 263 263 263 263 263 263 263 263 263 263 263 263 263 263 263 263 263 264 265 265 266 266 266 266 266 265 265 265 265 265 265 264 264 264 264 264 264 264 264 264 264 264 264 264 264 264 264
284 283 282 281 279 278 277 275 274 273 271 270 270 269 268 268 267 267 266 266 266 265 265 265 265 265 265 265 264 264 264 264 264 263 263 263 263 263 263 263 263 263 262 262 262 262 262 263 262 262 262 262 263 262 262 263 264 265 265 266 265 265 265 265 265 265 264 264 264 263 263 263 263 263 264 264 264 264 264 264 264 264 263 263 263
284 282 281 280 278 277 276 274 273 272 271 270 269 269 268 267 267 266 266 266 265 265 265 265 264 264 264 264 264 263 263 263 263 263 263 263 263 263 263 262 262 262 262 262 262 262 262 262 262 262 262 261 262 262 262 262 263 264 265 265 265 265 264 264 264 264 264 264 263 263 263 263 263 263 263 263 264 264 264 264 264 264 263 263 263
282 280 279 278 277 276 275 274 273 271 270 270 269 268 268 267 266 266 265 265 264 264 264 264 264 264 264 264 263 263 263 263 263 263 263 263 262 262 262 262 262 261 261 261 261 261 261 261 261 262 262 261 261 262 262 262 263 264 264 264 264 264 264 264 264 264 264 263 263 263 262 262 262 262 262 263 264 264 264 264 264 264 264 264 264
280 279 277 276 275 275 273 272 271 270 270 269 269 268 267 266 266 266 265 264 264 265 265 264 264 264 264 263 263 263 263 263 262 262 262 262 262 262 261 261 261 261 261 261 261 261 261 261 261 261 261 261 261 262 262 262 262 263 264 264 264 264 263 263 263 263 263 263 263 263 263 262 262 262 263 263 264 264 264 264 264 264 264 264 264
277 277 276 275 274 273 272 271 270 270 270 269 268 267 266 266 266 265 265 265 265 265 265 264 264 263 263 263 263 263 262 262 262 262 262 262 261 261 261 261 261 260 260 260 260 260 260 260 261 261 260 261 261 261 262 261 261 262 263 263 263 263 263 263 263 263 263 263 263 263 263 263 263 263 264 264 264 265 265 265 264 264 264 264 264
276 275 275 274 273 272 272 271 271 270 269 269 268 267 266 266 265 265 265 265 266 265 264 263 263 263 263 263 262 262 262 262 262 261 261 261 261 261 261 260 260 260 260 260 260 260 259 260 261 261 261 261 261 261 262 262 261 261 262 263 263 263 263 263 263 263 263 263 263 263 263 263 263 263 264 264 265 265 265 265 265 265 265 265 265
274 274 274 273 271 271 271 271 270 270 269 268 267 266 266 266 265 265 266 266 265 264 263 263 262 262 262 262 262 262 262 261 261 261 261 261 261 261 260 260 260 259 259 259 260 259 259 259 260 261 261 261 262 262 261 262 261 261 261 262 263 263 263 263 263 263 263 263 263 263 263 263 263 263 264 264 264 265 265 266 266 266 266 266 266
273 273 272 272 271 270 270 270 269 269 268 267 266 266 266 265 265 265 266 265 264 263 263 262 262 262 262 262 262 262 261 261 261 261 261 261 261 260 260 260 259 259 259 259 259 259 259 259 259 260 261 261 262 262 262 262 261 261 261 261 262 263 263 263 263 263 263 263 263 263 263 263 263 263 264 264 265 265 265 266 266 266 267 267 267
273 272 272 271 270 269 269 269 269 268 267 267 266 266 265 264 265 266 265 264 263 263 262 262 262 263 262 262 262 261 261 261 261 260 260 260 260 260 260 259 259 258 258 258 258 258 258 258 258 259 259 260 261 261 261 261 261 261 261 261 261 262 263 263 263 263 263 263 263 263 263 263 264 264 264 265 265 265 266 266 266 266 266 266 265
273 272 271 271 270 269 269 268 268 267 267 266 266 265 264 264 265 265 264 263 263 262 262 262 262 262 262 262 262 261 261 261 261 260 260 260 259 259 259 259 258 258 257 257 258 258 258 258 258 258 258 259 260 260 261 261 261 261 261 260 261 262 262 263 263 263 263 263 263 264 264 264 264 264 264 264 264 265 265 265 265 265 264 264 264
272 271 270 270 270 269 268 268 267 267 266 266 265 265 264 265 265 264 264 263 262 262 261 262 262 262 262 262 261 261 261 261 261 260 260 259 259 258 258 258 258 258 257 257 258 258 258 258 258 258 258 258 259 259 260 261 261 261 261 261 261 261 261 262 262 262 262 262 262 263 263 263 263 263 263 263 263 263 263 263 263 263 263 263 263
272 271 270 269 269 268 267 267 267 266 266 266 265 265 264 265 264 264 263 262 262 261 261 261 262 262 261 261 261 261 261 261 260 260 259 258 258 258 257 258 258 258 258 258 258 258 258 258 258 258 258 258 258 259 260 260 261 261 261 261 261 261 261 261 261 261 261 261 261 261 262 262 261 262 262 262 262 262 262 262 262 262 263 263 263
272 271 270 269 268 268 267 267 266 266 266 266 265 265 264 264 263 263 263 262 261 261 261 261 261 261 261 261 261 261 261 260 260 259 258 258 258 257 257 257 258 258 258 258 258 258 258 258 258 258 259 259 259 259 259 260 261 261 261 261 261 261 262 262 262 262 262 262 262 261 261 261 261 261 261 261 261 261 262 262 262 262 262 262 262
271 270 270 269 268 268 267 267 267 267 266 266 265 265 264 264 263 263 262 262 261 261 261 261 261 261 260 261 261 261 260 259 259 259 258 259 259 259 258 257 258 259 259 258 258 257 258 258 258 259 259 259 259 260 261 261 262 262 262 262 262 262 262 263 263 263 263 262 261 261 261 260 260 260 260 261 261 261 261 261 261 261 261 261 261
271 270 269 269 269 268 268 267 267 266 266 266 265 265 264 264 263 263 262 262 262 261 261 261 261 260 261 261 260 260 259 259 258 258 258 258 259 260 259 259 258 259 259 258 258 258 259 259 260 260 261 261 261 261 262 262 263 263 263 264 263 263 263 263 263 263 263 262 261 261 261 261 261 261 261 261 261 261 261 261 261 261 261 261 261
270 269 268 268 268 268 267 267 267 266 266 265 265 265 265 264 263 263 262 262 262 261 260 260 260 261 261 261 260 259 259 258 258 258 257 257 258 259 259 260 260 259 259 259 260 260 261 262 262 262 262 262 262 262 262 263 263 264 263 263 263 263 263 263 263 263 263 263 262 262 262 262 262 262 262 262 262 262 262 262 261 261 261 261 261
Wind_Speed
6 8 13 14 15 17 19 20 20 20 20 20 20 19 19 19 20 20 20 21 21 21 22 22 21 20 19 20 21 21 22 24 26 26 27 27 27 27 26 26 26 27 26 25 25 25 24 24 24 24 23 21 20 18 18 18 18 17 15 14 13 11 10 8 10 14 14 14 12 12 14 14 12 10 9 7 6 6 6 5 5 4 3 3 4
6 10 12 14 15 16 17 18 19 19 19 19 19 19 19 19 19 20 20 21 22 22 22 23 23 22 20 19 18 17 17 20 22 23 26 28 28 28 28 28 28 28 28 27 27 27 26 25 25 25 24 22 21 21 21 21 19 18 16 12 9 9 9 8 10 11 10 12 12 12 13 9 7 5 5 5 4 4 4 4 4 3 3 3 3
8 10 11 12 14 15 16 18 19 19 19 19 19 19 19 19 20 19 20 21 22 23 23 24 25 25 25 23 21 20 20 21 23 25 27 29 30 30 30 29 29 29 29 28 28 28 27 27 26 25 24 23 22 20 19 18 17 16 15 11 9 9 9 8 8 9 9 12 12 10 8 6 5 5 5 5 4 4 4 4 4 3 4 4 3
9 10 10 10 10 11 14 16 17 19 20 21 21 21 21 21 21 20 21 22 22 23 24 24 25 26 28 28 28 28 27 27 30 32 32 32 32 31 31 30 28 28 28 27 28 28 28 27 26 24 24 23 21 18 15 14 13 12 11 9 8 9 9 6 6 7 8 9 8 8 8 7 7 4 2 5 6 7 6 6 5 5 4 4 4
9 9 8 8 8 8 9 11 13 15 17 19 19 20 20 19 19 19 19 20 20 21 21 21 23 23 23 23 24 25 25 25 26 26 25 24 24 23 24 26 26 25 25 25 25 26 27 27 27 24 22 21 19 16 13 11 10 10 10 8 8 8 9 8 6 6 7 6 6 7 7 5 5 6 9 9 6 7 7 7 7 6 5 5 4
9 9 6 6 7 7 7 8 10 11 12 12 12 13 13 12 13 13 13 14 15 15 16 17 18 18 16 15 15 15 16 15 15 15 15 14 14 13 15 20 25 26 25 25 25 25 25 26 27 25 21 18 17 15 12 10 9 9 9 8 8 8 8 8 8 7 6 7 8 9 8 8 8 9 9 7 4 6 8 8 8 8 7 6 5
8 8 7 7 7 6 7 8 9 8 7 7 6 5 5 5 6 7 8 9 9 10 12 13 13 13 13 13 14 14 15 14 14 15 14 14 14 14 15 17 21 24 25 24 24 24 24 24 26 25 22 18 16 15 13 11 9 9 9 8 7 7 7 8 8 7 7 7 8 10 11 12 11 10 7 7 7 7 7 8 8 8 8 7 7
6 6 6 7 7 7 6 6 5 5 4 4 3 3 3 3 3 3 4 4 5 7 8 9 10 10 11 12 13 13 14 15 15 15 15 15 15 15 16 15 16 19 21 20 20 22 22 23 22 22 21 20 18 16 13 11 10 10 10 9 8 7 7 7 8 7 8 8 7 7 9 11 11 11 10 9 8 8 8 9 9 9 9 9 9
6 5 5 6 6 5 4 4 3 4 5 5 5 4 4 3 3 2 0 2 3 4 5 6 7 8 9 10 11 12 13 13 13 13 13 13 14 14 14 14 14 15 17 17 18 18 19 20 19 19 20 20 19 18 15 14 15 13 10 9 8 7 7 7 7 8 8 8 7 7 9 10 11 11 12 12 11 9 9 9 11 10 9 9 9
5 5 5 5 5 5 6 5 5 7 8 7 7 7 6 5 5 4 3 1 1 2 2 3 5 6 8 9 11 12 12 12 12 12 12 12 13 13 12 13 12 12 13 14 15 16 16 17 16 18 20 20 20 19 17 19 19 16 12 9 8 8 7 7 7 8 8 8 8 9 9 9 10 10 10 12 12 12 11 10 13 13 11 11 9
5 6 6 6 7 8 9 9 9 9 9 9 9 8 8 7 7 7 6 5 4 3 2 2 3 4 6 8 10 11 12 12 12 12 12 12 12 12 12 12 11 12 12 11 12 14 14 15 15 17 18 19 20 18 16 17 17 14 11 9 9 8 8 8 8 8 8 8 8 9 10 10 11 10 10 10 10 11 11 11 13 14 14 15 12
6 6 7 8 9 9 10 9 10 10 10 10 10 10 10 10 9 9 8 7 6 5 5 4 3 3 5 7 9 10 11 11 12 12 12 12 12 12 12 12 12 11 11 11 11 11 12 13 14 14 16 17 18 16 14 14 13 11 10 9 8 8 8 8 8 8 8 9 9 9 10 11 12 12 12 11 11 12 11 11 13 13 12 15 15
6 6 6 7 8 9 10 10 10 10 10 10 10 10 10 10 9 8 8 7 6 6 6 6 5 5 6 7 8 9 10 11 12 12 12 12 12 12 12 12 12 11 11 11 11 10 10 11 12 12 13 14 14 14 14 14 13 11 10 10 9 8 8 8 8 8 8 9 9 9 10 10 11 12 12 11 11 12 13 12 14 14 13 15 15
5 6 5 6 8 9 10 10 10 10 10 10 9 9 9 8 8 7 7 6 7 7 7 6 6 6 7 7 8 9 9 10 11 12 12 12 12 13 13 12 13 12 12 13 12 11 11 12 12 11 11 12 12 13 13 13 13 11 10 10 10 9 9 8 8 9 9 9 9 9 10 10 11 11 12 12 11 11 12 12 13 13 14 16 15
5 5 6 7 9 10 10 10 10 10 9 9 8 8 8 7 7 6 6 6 7 7 7 7 6 6 7 7 7 8 8 9 10 10 11 12 12 13 13 13 13 12 13 13 12 11 12 12 11 11 11 12 12 13 13 12 12 11 10 10 9 9 8 9 9 9 9 10 10 10 10 11 11 11 11 12 12 12 12 12 12 10 10 12 13
6 6 6 8 10 10 10 10 10 9 9 8 8 7 7 7 6 6 6 6 7 7 6 6 6 6 6 7 7 7 8 8 9 9 10 11 12 13 13 12 12 12 12 11 10 11 11 10 10 11 12 12 12 12 12 11 11 10 9 9 9 8 8 9 9 9 9 10 10 10 10 11 11 11 11 12 12 12 12 12 12 11 9 8 8
6 6 7 9 10 10 10 10 9 9 8 8 8 7 7 6 6 5 5 5 6 6 5 5 5 5 6 7 8 8 8 8 8 9 11 11 11 11 11 11 11 11 11 10 11 12 11 10 9 9 10 10 10 11 11 10 10 10 9 9 9 8 8 9 9 9 9 9 9 10 10 11 11 11 12 12 12 13 13 12 12 12 11 9 7
7 7 8 10 11 10 10 9 9 9 9 9 8 7 6 5 5 4 4 4 4 4 4 4 4 4 5 7 8 8 9 9 9 9 10 9 9 9 9 9 9 9 9 10 12 11 10 9 8 7 8 9 9 9 10 10 9 9 9 9 9 9 9 9 9 9 9 9 10 10 10 11 11 11 12 12 12 13 13 13 13 13 13 12 10
7 8 8 10 11 11 11 10 10 10 9 9 7 6 5 5 4 4 3 3 3 3 3 3 3 4 5 6 7 7 8 9 9 9 9 8 8 8 7 7 6 5 5 7 8 7 6 6 6 6 7 8 8 9 9 9 10 10 9 9 9 9 9 9 9 9 9 9 10 10 11 11 11 11 12 12 12 13 13 13 13 13 14 14 14
8 8 8 10 12 11 11 11 11 10 9 8 7 6 5 4 4 3 2 2 2 2 2 2 2 3 4 5 5 7 7 8 8 8 8 8 8 8 7 6 5 4 4 4 4 4 5 5 5 6 7 7 8 9 9 9 10 10 10 10 10 9 10 10 10 10 9 9 10 11 11 11 11 11 11 11 12 12 13 13 13 14 14 14 15
9 9 9 11 12 12 12 12 11 10 9 8 7 5 4 4 3 2 2 1 0 1 1 1 1 2 3 4 5 6 7 7 7 7 8 8 8 8 7 6 5 4 3 2 3 3 4 4 5 6 6 7 7 8 9 10 10 10 10 10 10 10 10 11 10 10 10 10 10 11 11 11 11 12 12 12 12 12 12 13 14 14 15 15 15
10 10 10 12 13 13 13 12 10 9 8 7 6 5 4 3 2 2 2 1 1 1 1 1 1 2 3 3 4 5 6 7 7 7 7 8 7 7 7 6 5 5 4 3 2 2 3 4 4 5 5 6 7 8 9 9 10 11 11 10 11 11 12 12 11 11 11 10 10 11 11 11 11 12 13 13 13 13 13 14 14 14 15 15 14
10 10 11 13 14 13 12 11 10 9 8 7 6 4 3 2 2 3 3 2 2 1 1 1 1 2 3 3 4 5 6 6 6 6 7 7 7 7 6 6 6 6 5 3 2 2 3 3 4 5 6 6 7 8 9 10 10 11 11 11 11 12 12 12 12 12 11 11 11 12 12 12 12 13 14 14 14 14 14 15 16 15 16 16 15
10 10 11 13 13 13 12 11 10 9 8 7 5 4 3 2 2 3 4 3 2 2 2 2 2 2 2 3 4 5 6 6 6 6 7 8 8 7 7 6 5 5 4 3 3 3 3 4 5 6 7 7 8 9 9 10 11 11 12 12 12 13 13 13 13 13 12 12 12 13 13 13 13 14 15 14 14 14 14 15 16 15 15 17 16
11 11 11 12 12 12 11 11 10 9 8 7 5 4 4 3 3 4 5 5 3 3 2 2 2 2 2 4 5 6 6 6 6 7 8 9 9 8 8 8 7 5 4 4 4 4 5 6 7 8 9 10 10 10 10 11 11 12 12 13 13 13 14 14 14 13 13 13 14 14 14 14 14 15 16 15 15 15 15 15 15 15 15 16 16
12 12 11 11 11 12 12 11 10 10 8 7 6 5 4 4 4 5 6 6 5 3 3 3 3 2 3 4 5 5 6 6 6 7 8 8 8 8 8 7 6 6 6 6 6 6 7 7 9 10 10 12 12 11 11 11 12 12 13 13 14 14 14 14 14 15 14 15 15 15 16 15 16 17 17 17 17 17 17 17 17 16 15 15 16
11 11 11 11 11 12 12 12 11 10 9 8 7 6 5 4 5 6 6 7 6 5 4 4 4 3 4 5 5 5 6 6 7 8 9 9 8 7 7 6 6 6 6 7 7 7 8 9 10 11 12 12 13 12 12 12 12 13 14 15 16 15 15 15 16 16 17 17 18 18 18 19 19 20 21 21 22 22 21 21 20 19 17 16 17
10 11 12 12 11 12 13 13 11 11 10 9 7 7 6 6 6 6 7 7 7 6 5 5 5 5 5 5 5 6 8 9 9 9 9 9 8 7 7 7 7 7 6 7 7 8 8 9 10 11 11 12 12 12 12 12 14 15 16 18 19 17 17 17 18 19 20 21 22 22 23 23 23 22 23 23 24 24 24 23 21 19 17 17 17
12 13 13 13 12 12 13 13 12 12 12 10 9 8 8 7 7 7 7 7 7 7 7 7 6 6 6 6 7 9 10 10 10 10 9 9 8 7 8 8 8 8 8 9 9 9 9 10 10 11 11 12 13 14 14 14 16 18 19 20 21 20 20 21 22 23 24 25 26 26 25 25 24 23 23 23 24 24 24 24 21 18 15 15 15
14 14 13 13 12 13 14 14 14 14 13 11 10 9 9 8 8 8 8 8 8 7 8 8 8 7 8 10 11 11 11 11 11 10 9 9 9 9 11 10 10 11 12 12 12 12 12 12 12 13 13 14 15 16 17 16 16 18 19 20 22 23 24 25 26 27 27 28 28 28 26 24 23 23 23 24 25 25 25 26 24 19 15 14 14
13 13 13 12 12 13 15 15 15 15 14 12 11 10 10 9 8 9 9 8 8 8 9 9 10 11 11 12 12 12 12 11 11 10 10 11 11 12 13 13 13 14 14 14 15 15 15 15 15 16 16 16 18 18 17 17 17 18 19 20 22 24 26 27 28 28 29 29 28 27 26 25 24 24 23 24 25 25 26 26 26 25 22 20 17
13 12 13 13 13 14 15 16 15 15 14 13 11 11 10 9 9 10 9 9 9 10 11 12 12 13 13 13 13 13 12 12 11 11 12 13 14 14 15 15 16 16 16 17 17 17 18 18 18 18 19 19 20 19 18 17 19 20 20 21 20 21 22 22 22 23 24 25 24 23 23 25 26 25 24 24 24 25 26 26 26 27 27 27 26
12 12 13 13 13 14 16 16 15 15 15 14 12 11 11 10 10 10 10 11 12 13 13 13 14 14 14 14 13 13 13 13 13 13 14 14 15 16 16 16 17 18 18 19 19 19 20 20 20 20 21 22 22 22 20 19 20 21 22 22 21 20 20 20 18 19 20 20 20 18 18 20 23 24 25 26 26 26 27 27 28 28 27 28 29
11 11 12 13 14 14 15 15 15 15 14 13 12 12 11 10 10 11 11 13 13 13 14 14 14 15 15 14 14 14 15 15 14 14 15 16 16 16 17 17 18 18 19 20 20 21 21 21 21 21 22 23 24 24 21 20 21 22 23 25 25 24 23 21 20 21 20 19 18 16 15 16 18 19 22 25 28 28 28 29 30 31 31 30 31
9 10 11 13 14 14 14 14 14 15 15 14 13 13 12 12 13 13 13 14 14 13 14 15 15 15 15 15 15 15 16 16 15 15 16 17 18 18 18 17 17 18 19 20 20 21 22 22 21 21 23 24 25 24 22 21 22 23 23 24 25 23 21 20 19 20 20 19 17 16 16 17 18 19 20 23 26 27 29 31 32 32 34 34 35
10 11 13 14 16 16 16 16 16 17 17 16 15 16 15 15 15 15 14 14 14 14 15 15 16 16 16 16 16 16 17 17 17 17 18 19 18 19 19 18 18 19 19 20 21 22 23 23 22 22 23 26 26 25 23 22 22 23 23 23 22 20 20 20 19 19 19 20 19 18 18 19 19 20 22 23 25 26 27 30 33 34 36 36 37
10 12 13 15 17 18 18 18 19 19 19 18 17 17 17 17 16 15 14 14 14 16 16 17 17 17 17 17 17 17 18 18 18 18 19 20 19 20 19 18 19 20 20 20 21 23 23 23 24 23 24 26 27 26 24 22 22 23 23 22 21 20 20 20 19 19 18 19 19 20 20 20 20 22 23 25 27 27 27 28 30 31 33 35 36
11 12 12 15 18 20 20 20 20 19 19 19 18 18 18 17 17 16 15 15 16 17 18 17 18 17 17 18 17 17 18 18 19 19 19 20 20 20 20 19 20 21 22 22 22 23 24 24 25 25 25 26 28 27 25 23 22 22 23 22 21 21 21 20 19 18 17 17 19 21 23 23 24 25 25 26 28 28 27 26 27 27 28 29 30
12 15 17 18 20 20 19 19 20 19 19 19 18 18 18 18 17 16 15 16 18 19 19 18 18 18 18 18 17 18 18 19 20 20 19 20 20 19 19 18 19 20 21 22 21 21 22 24 25 25 25 26 28 28 26 24 22 22 23 22 21 21 21 20 19 18 18 18 18 20 22 25 26 25 25 26 27 28 28 28 27 26 26 26 25
12 15 19 21 21 21 21 20 21 20 19 18 18 18 19 19 17 16 17 19 20 19 18 18 19 18 18 18 17 17 18 19 19 19 19 19 19 19 19 19 19 18 17 18 19 19 21 25 27 26 26 27 29 28 27 25 24 23 23 22 22 22 22 21 19 19 19 19 19 19 20 23 26 27 27 28 28 29 29 29 28 26 26 26 24
15 17 20 21 22 22 22 21 21 19 18 18 19 19 20 20 18 18 20 21 19 17 17 19 19 19 18 18 16 16 17 17 17 18 18 19 19 20 20 20 21 20 18 19 21 23 24 28 30 29 29 29 30 29 27 26 24 23 22 23 23 23 23 22 21 19 19 19 20 20 18 19 22 25 27 28 29 29 30 29 28 28 30 30 28
15 18 20 21 21 22 21 20 19 18 18 19 20 21 21 20 20 21 22 20 17 17 18 19 19 18 18 17 16 16 16 16 16 17 18 19 20 20 21 21 21 21 22 24 26 27 27 28 30 30 30 30 29 29 27 26 25 23 22 22 23 24 23 22 22 21 20 20 20 20 20 20 22 24 27 28 29 30 29 28 27 29 31 33 32
14 17 20 22 22 22 21 20 19 19 19 20 21 22 22 21 22 23 21 17 16 18 19 19 19 19 18 17 16 16 16 16 16 17 18 19 20 21 21 22 21 22 23 24 25 26 25 26 28 29 30 30 29 28 27 25 24 23 22 22 23 24 24 24 24 24 23 22 21 21 21 22 24 25 27 28 28 27 26 26 28 30 30 28 26
14 17 21 23 22 21 21 20 20 20 20 21 22 23 22 22 24 23 19 16 17 19 18 19 19 19 17 16 16 16 16 17 17 17 18 19 20 20 21 21 20 19 18 18 20 20 19 20 21 23 27 30 30 28 28 26 24 22 21 20 22 24 24 25 25 26 25 23 22 22 22 23 24 26 28 29 29 28 26 26 26 25 20 15 12
15 17 21 23 22 21 21 20 20 21 21 21 22 22 22 24 24 21 18 17 18 19 19 20 19 18 17 16 17 17 18 18 18 18 19 20 19 18 19 18 16 14 13 14 16 16 16 17 17 18 23 28 30 29 28 26 23 20 19 19 20 22 23 24 25 25 25 24 24 25 26 27 28 29 29 29 27 25 25 25 25 23 19 15 12
14 17 21 23 21 19 19 19 19 21 22 22 22 22 23 24 22 19 17 17 18 19 20 20 19 18 17 17 17 18 19 19 19 19 20 20 19 18 18 17 16 13 13 15 16 16 16 17 17 17 19 24 28 29 29 27 24 22 21 21 21 21 23 23 25 26 27 28 29 29 30 30 30 30 29 26 24 23 25 28 30 29 26 21 17
17 19 21 22 19 17 18 19 19 21 23 23 22 23 23 22 20 19 18 18 18 19 20 20 19 18 18 18 18 19 20 20 19 18 17 16 16 16 16 17 17 16 14 14 15 16 17 17 17 17 17 20 23 25 26 27 26 26 26 25 24 24 24 25 27 28 30 31 31 31 30 29 28 27 27 27 25 25 25 26 27 25 22 21 20
18 19 20 21 20 19 20 21 21 22 22 22 22 22 21 20 19 19 18 19 20 21 21 21 20 19 19 20 20 19 19 20 19 17 15 16 16 14 13 15 19 20 18 17 17 17 17 17 18 18 17 17 17 18 22 27 29 29 29 28 26 26 26 26 27 28 28 29 30 30 30 27 22 20 20 20 20 20 19 19 22 24 24 25 27
17 19 20 22 22 22 22 23 23 22 21 21 21 21 19 18 18 18 18 20 21 22 22 22 21 21 21 21 21 20 19 19 19 18 18 21 21 19 17 19 22 23 22 21 22 20 19 20 23 24 23 20 18 20 26 30 29 28 29 29 29 30 30 30 29 29 29 29 25 22 21 18 15 15 15 15 16 18 17 19 24 30 30 29 30
17 18 20 22 23 23 23 23 22 21 20 20 20 20 18 17 17 18 18 20 21 21 21 22 22 22 22 22 22 20 16 13 12 14 17 22 25 25 24 23 24 25 24 24 24 25 25 26 29 32 31 27 26 29 31 29 26 27 28 28 28 28 27 27 27 26 27 27 22 17 17 17 17 17 18 18 18 19 20 20 24 28 30 30 31
16 18 18 21 22 22 21 22 21 20 19 19 19 19 18 17 17 18 19 20 21 21 21 22 22 23 23 22 20 16 12 10 9 9 12 16 21 25 26 25 24 24 23 23 24 26 28 28 29 30 30 29 28 29 28 27 26 27 26 25 25 25 25 26 25 23 24 24 22 19 18 19 20 21 22 22 22 21 22 22 22 23 24 26 28
Wind_Direction
231 238 246 243 235 230 231 234 236 240 243 245 247 251 254 257 260 262 265 267 267 267 267 268 267 267 268 270 271 271 272 274 277 278 277 277 277 278 279 280 280 279 281 282 282 283 283 284 286 289 291 291 291 290 289 290 293 297 298 301 300 297 298 293 301 311 304 300 299 293 293 285 279 287 276 265 271 267 264 257 249 249 249 256 263
231 240 244 240 236 230 229 233 236 240 245 248 251 255 259 262 263 265 267 268 268 267 266 267 267 267 265 266 267 266 266 269 272 273 274 275 276 276 276 277 277 276 278 278 279 280 280 280 281 283 285 284 285 285 287 289 290 292 294 297 295 289 293 292 305 314 305 308 310 303 302 277 242 262 256 244 257 251 243 231 224 229 236 250 269
229 231 229 230 235 235 234 236 238 242 245 250 254 257 259 260 261 263 264 265 267 267 267 266 267 267 266 265 264 264 265 267 269 270 272 274 275 276 276 275 275 276 277 277 277 278 277 276 277 278 279 279 280 281 283 284 284 286 287 289 288 286 290 290 302 310 308 313 307 292 305 304 264 242 214 226 237 229 228 215 214 219 226 246 259
226 227 219 212 216 225 234 238 242 244 245 247 251 253 255 257 260 263 266 267 268 269 270 269 268 268 269 269 269 269 270 271 273 275 276 277 278 279 280 280 279 280 281 281 279 279 277 276 275 274 274 276 277 273 271 271 271 274 275 276 278 282 286 283 290 300 304 312 306 297 304 299 283 279 299 276 231 210 221 211 210 219 225 244 249
227 227 210 196 200 208 221 235 244 247 248 249 251 253 256 260 264 267 269 272 273 275 277 277 274 272 272 274 275 274 274 273 274 277 279 281 284 284 284 286 288 287 288 287 285 282 280 277 275 273 270 271 271 266 260 256 253 257 262 262 258 264 276 275 273 281 283 279 280 295 301 283 286 328 329 300 224 193 214 211 212 219 221 234 239
233 237 223 205 211 211 216 231 241 243 247 251 252 252 256 261 266 272 277 280 284 287 287 285 280 275 270 268 271 273 272 271 271 277 282 282 284 285 285 288 290 290 290 289 288 286 282 279 277 273 267 263 262 259 255 250 246 248 250 251 251 255 264 267 268 263 258 253 248 257 271 278 296 317 317 296 249 216 212 209 218 222 224 233 237
228 237 238 236 234 226 223 224 227 230 231 239 244 245 253 262 269 276 283 287 292 294 295 291 283 273 266 264 267 270 272 273 276 282 285 282 281 283 284 284 286 290 291 288 287 287 284 280 277 274 267 261 259 257 253 247 242 245 247 245 250 256 254 259 271 270 261 256 240 239 254 263 274 286 288 287 289 269 231 218 226 224 228 240 242
219 226 226 230 230 218 209 200 199 204 200 197 199 201 212 231 245 259 276 286 292 294 293 292 284 272 268 269 268 269 271 276 281 283 282 282 281 283 285 283 281 286 291 290 286 286 286 282 275 270 266 261 259 257 252 246 243 248 253 251 251 254 251 257 271 277 275 271 252 237 251 256 257 260 262 267 280 283 268 256 248 234 231 244 249
213 220 209 199 197 186 169 153 151 151 148 147 148 153 156 162 163 147 310 301 297 296 294 293 290 279 273 272 272 274 275 278 282 282 281 282 281 282 283 283 280 278 284 291 291 288 287 284 273 265 265 262 259 258 252 251 255 254 250 247 247 247 252 258 267 274 277 277 274 266 262 257 253 253 253 255 257 266 273 272 269 258 245 249 246
199 199 187 167 147 134 125 119 117 119 123 125 125 127 126 125 117 98 76 34 347 315 313 304 295 285 276 274 276 278 280 282 282 281 280 280 281 283 282 282 280 274 272 280 290 291 287 282 271 264 266 263 260 259 255 256 260 256 246 241 241 245 255 259 262 272 276 273 275 277 273 265 260 255 248 247 250 255 261 269 274 271 268 269 257
168 167 156 132 113 112 115 114 114 112 112 111 108 108 106 107 104 93 84 75 63 47 31 4 315 287 278 277 278 280 282 283 282 281 282 282 282 284 283 282 280 276 270 265 275 286 284 278 272 268 267 264 261 256 251 253 254 248 239 235 238 242 250 257 262 266 270 272 272 270 271 271 269 268 263 257 254 256 262 268 271 271 272 274 273
147 145 136 122 114 114 117 118 117 113 109 107 106 104 99 99 99 91 81 73 62 52 40 26 3 320 296 289 285 284 284 283 282 283 284 284 284 284 284 284 283 280 276 268 267 275 278 277 273 267 263 263 262 252 242 242 239 232 230 233 237 240 242 250 259 262 263 269 271 267 267 269 270 273 274 272 267 268 274 276 277 279 276 274 276
141 138 135 132 130 129 131 131 124 116 113 111 107 104 99 94 91 84 71 57 44 32 19 10 360 339 320 309 299 294 291 287 286 286 286 286 285 285 284 284 286 285 282 281 280 275 275 276 270 262 257 258 257 246 237 236 233 230 231 234 236 239 243 246 253 261 264 265 269 270 270 269 271 273 275 273 271 273 275 276 279 281 279 278 280
144 140 141 140 140 140 139 134 127 121 118 114 108 103 99 91 81 74 59 34 20 14 6 0 351 339 331 323 315 309 303 298 294 291 291 290 287 286 286 285 286 287 287 289 288 281 279 278 271 262 256 254 249 238 233 231 230 230 229 231 236 241 245 247 253 259 260 260 263 267 270 270 271 273 274 273 271 271 270 274 282 283 278 279 281
149 143 144 141 141 141 137 131 128 126 122 116 109 104 99 89 76 68 56 31 16 13 10 4 354 347 344 338 332 325 316 310 304 300 297 295 292 289 287 286 285 287 288 289 288 286 282 276 270 262 257 257 248 234 227 224 224 225 226 229 234 240 244 248 256 258 255 255 255 259 265 267 268 270 270 271 271 270 269 273 279 284 283 280 280
155 151 143 142 143 141 137 135 133 131 126 118 110 103 97 86 72 63 53 34 20 18 17 11 5 4 2 357 352 346 337 329 317 310 305 299 295 290 286 286 286 287 288 288 288 286 279 270 265 264 262 257 244 229 224 222 220 221 227 232 234 239 246 250 257 259 258 256 254 256 260 263 266 267 267 269 269 268 268 270 271 272 279 285 285
164 161 149 148 147 143 142 142 139 135 128 120 110 98 89 78 70 63 52 40 28 24 24 17 14 13 10 9 6 1 356 347 334 324 319 311 303 296 292 290 290 289 288 288 288 286 282 275 266 262 259 250 236 228 226 223 220 223 230 234 237 243 248 251 257 260 260 261 260 260 260 264 267 266 266 267 266 266 265 264 264 262 266 276 284
163 159 153 152 150 148 147 142 137 136 130 120 108 94 83 72 67 68 58 49 37 30 27 19 18 17 13 12 10 8 6 359 349 341 336 331 325 317 308 301 297 293 291 293 293 289 286 281 267 252 246 239 230 226 223 219 219 227 233 237 240 243 246 252 255 256 257 259 260 261 261 264 267 266 265 265 264 264 262 261 261 259 259 261 269
166 163 160 159 158 155 150 143 141 139 131 121 110 98 93 84 79 83 74 61 43 29 25 19 19 19 13 10 11 13 12 9 5 357 353 351 346 342 334 324 316 308 302 302 298 289 280 271 255 239 233 228 220 215 215 215 220 228 234 238 240 239 243 250 252 250 252 253 255 259 261 263 267 266 265 264 262 261 260 260 261 259 257 257 261
175 170 168 166 162 159 155 154 151 143 134 126 119 111 106 103 103 103 95 78 52 28 18 17 16 16 12 4 5 12 14 16 17 9 7 9 4 1 360 354 348 339 325 314 297 280 267 248 230 223 221 217 214 214 216 218 224 230 233 237 239 237 240 247 251 250 249 250 254 258 260 263 266 266 265 265 263 260 259 260 261 261 259 256 258
179 172 170 166 162 162 162 160 152 143 138 133 128 123 116 114 121 125 130 132 71 10 355 359 356 358 2 354 355 5 7 10 16 14 14 18 14 12 11 8 6 3 349 327 295 269 250 230 219 217 217 216 215 217 220 222 227 232 234 237 238 237 241 248 252 252 250 253 258 261 263 264 263 263 264 265 264 262 261 260 260 261 259 256 255
179 173 170 166 166 167 165 160 153 147 145 143 139 133 125 120 132 167 184 193 230 275 311 319 315 329 344 347 350 358 358 358 4 7 12 16 15 16 18 17 13 8 4 352 318 271 235 225 225 224 221 221 222 222 224 226 230 233 235 237 238 240 246 250 251 252 253 256 260 262 265 265 262 259 259 260 261 260 259 259 258 258 259 257 253
176 172 170 169 172 169 164 161 158 156 153 152 150 144 140 136 158 201 208 207 233 257 271 282 282 307 329 342 348 352 351 349 350 353 357 359 0 6 13 17 14 6 359 348 318 274 243 238 245 243 233 230 230 229 229 230 233 236 237 240 241 243 247 250 250 252 254 257 259 262 264 265 263 260 258 258 257 256 254 255 256 255 257 259 254
172 171 170 170 171 167 166 167 165 165 162 160 159 154 160 184 204 218 218 214 231 250 249 253 256 283 321 340 345 346 345 343 343 342 339 334 334 339 343 344 346 346 338 319 296 279 268 262 259 255 249 243 239 236 234 235 238 240 242 244 245 246 247 249 250 252 255 257 258 260 263 264 263 261 260 259 256 254 253 253 255 253 253 257 255
173 174 173 172 173 173 174 174 171 171 169 166 169 170 186 211 224 228 224 220 229 242 244 246 246 268 318 339 340 339 339 339 337 332 326 321 318 318 315 314 315 314 309 300 291 283 274 268 264 261 258 256 251 244 240 241 242 243 245 248 248 248 249 249 250 252 255 257 258 260 263 264 261 260 260 259 257 255 254 255 255 254 253 255 257
178 178 178 177 179 180 179 177 176 175 174 173 178 187 202 216 230 231 223 221 228 232 238 246 248 271 315 328 330 330 330 332 329 322 318 315 313 310 308 307 303 299 295 289 285 280 274 270 267 264 261 259 256 250 246 247 248 248 248 249 249 249 250 250 251 253 254 256 258 259 261 261 259 257 257 258 259 256 255 255 254 253 254 256 257
180 181 182 182 184 184 182 180 179 178 178 180 187 196 206 217 229 227 218 219 224 227 236 247 251 273 300 309 314 318 317 315 312 309 309 309 310 310 310 309 304 300 295 290 285 279 275 272 268 265 263 261 258 255 253 252 253 252 249 251 253 251 251 252 251 254 257 259 261 263 265 266 265 264 263 264 264 261 258 257 255 253 252 253 254
183 186 187 187 187 186 184 183 182 182 182 185 191 199 206 216 223 220 216 217 220 227 236 241 248 263 278 288 293 297 299 299 298 298 300 303 306 308 305 303 303 300 294 290 287 283 278 272 269 266 263 261 259 257 255 255 256 257 255 258 260 256 253 255 256 260 264 267 270 272 272 273 273 272 271 269 267 264 260 257 255 251 248 249 249
191 193 192 191 190 186 186 186 185 185 186 189 195 199 204 213 216 214 215 214 217 227 234 236 244 253 259 269 280 285 288 289 289 291 294 295 298 299 296 297 298 293 288 284 281 279 277 273 270 267 265 263 261 261 262 262 264 266 265 265 265 261 259 261 262 265 267 269 272 275 275 275 275 274 273 271 268 266 261 257 254 248 242 243 244
197 197 194 194 191 187 186 186 187 189 189 191 197 201 204 208 210 210 211 211 215 225 231 233 239 247 256 268 275 278 280 282 284 286 287 289 291 292 291 291 290 286 283 281 278 274 273 272 270 268 266 266 266 266 268 268 266 266 267 267 268 267 266 266 265 266 267 269 271 274 276 278 277 274 273 271 268 265 261 258 256 251 243 238 238
200 198 194 192 190 188 187 188 190 191 190 193 198 200 202 205 207 206 206 209 216 224 231 236 243 252 261 268 271 271 273 276 278 280 282 283 284 285 285 286 286 285 283 281 278 275 272 270 269 268 268 267 268 268 269 268 265 263 264 265 267 267 266 265 264 265 267 268 267 270 275 279 278 274 271 268 266 264 261 258 254 251 248 243 238
199 195 192 191 189 189 189 189 190 189 188 193 197 197 200 204 205 202 204 211 219 226 234 242 251 257 262 265 265 266 268 269 271 273 275 277 278 279 282 283 282 282 282 280 278 275 273 271 270 269 269 268 268 268 268 267 266 266 266 267 267 266 265 263 261 261 262 261 258 261 268 273 275 274 271 267 263 260 259 257 252 250 249 248 245
197 192 191 192 190 190 189 187 187 188 190 195 197 198 202 205 203 203 209 218 226 234 242 249 254 257 258 259 259 259 261 263 265 268 271 273 276 278 279 280 280 280 279 278 277 275 273 272 271 271 271 270 269 269 268 267 268 269 269 268 269 269 268 266 263 262 262 258 255 257 261 264 267 268 267 265 262 258 257 256 254 253 252 252 252
196 191 190 189 187 186 186 185 185 188 191 195 198 201 205 204 204 207 216 227 235 242 249 251 251 251 252 251 252 254 258 260 262 265 269 271 274 276 278 279 281 280 279 278 277 275 274 273 272 272 272 271 271 270 269 268 269 270 269 270 272 273 271 269 266 264 262 258 256 258 258 258 260 260 258 257 258 259 259 258 257 256 254 254 255
195 192 189 186 181 178 178 180 184 189 191 193 199 205 207 208 213 219 226 236 243 246 247 246 244 245 245 246 249 252 256 259 261 264 268 271 274 277 279 280 280 279 279 279 277 276 276 275 274 273 273 272 272 272 271 269 269 270 270 272 274 275 272 269 265 262 258 255 253 254 256 257 257 257 254 251 251 254 258 259 258 257 257 257 258
195 190 186 181 177 177 179 181 186 193 197 199 204 210 211 213 219 225 231 239 243 242 241 240 240 241 242 244 247 251 255 259 262 265 268 271 274 277 280 281 281 280 279 278 278 278 278 277 276 274 273 274 275 275 273 270 270 271 272 273 274 273 270 267 264 260 256 255 254 252 253 255 253 253 253 251 251 252 254 255 254 255 258 259 261
190 184 179 175 179 184 187 189 192 198 202 203 206 211 213 214 219 225 232 237 239 239 238 238 239 241 242 245 247 251 256 260 263 265 268 272 275 278 280 281 280 280 280 277 278 281 280 280 279 277 275 275 278 279 276 271 270 271 271 272 271 269 267 265 262 258 255 255 254 250 249 250 252 253 253 252 252 253 252 252 252 253 255 256 259
171 164 162 169 181 187 189 193 195 199 204 205 209 212 212 214 218 224 231 234 234 236 238 238 240 242 244 247 249 253 258 262 264 266 270 274 277 278 280 280 279 280 281 280 280 281 281 280 281 281 280 278 279 282 280 274 270 270 270 269 268 267 265 264 262 259 256 255 254 251 248 247 250 254 254 254 256 254 250 250 251 251 252 252 254
164 165 168 173 181 183 185 191 195 199 205 208 212 212 211 214 220 224 229 232 235 239 240 240 243 246 248 250 252 255 258 262 266 269 271 275 277 278 279 279 279 280 282 282 282 280 279 281 282 284 285 283 281 283 284 279 273 270 269 268 266 264 262 261 261 260 258 256 254 252 250 248 249 252 252 252 256 255 250 247 249 250 251 251 251
156 167 174 176 178 179 182 190 198 203 208 211 212 211 212 218 223 226 231 237 242 244 244 244 246 248 250 252 254 256 259 262 266 270 273 275 276 278 278 279 279 279 277 277 277 275 277 282 284 284 284 284 284 285 286 285 279 272 268 267 264 261 260 260 260 259 259 258 254 252 251 248 248 252 255 255 257 257 253 250 247 246 249 251 250
160 170 175 175 180 185 190 198 205 208 210 211 211 210 215 222 227 231 238 244 248 248 245 244 246 248 251 253 253 255 260 264 267 271 274 276 277 278 279 279 280 279 276 274 278 280 280 283 286 287 285 285 286 287 287 287 283 274 267 265 263 260 259 259 260 259 258 257 255 253 252 249 247 253 259 260 259 258 257 255 250 247 249 251 249
163 174 177 177 183 190 196 204 208 209 210 212 211 213 219 225 230 237 244 249 249 245 242 242 245 248 251 253 254 256 261 265 268 272 274 277 280 281 281 281 279 278 277 278 281 282 281 283 286 287 288 288 289 290 289 288 285 279 270 265 262 260 258 257 258 257 256 256 254 251 249 250 251 255 260 261 261 261 259 258 256 254 255 256 254
166 176 183 185 187 192 199 206 208 209 213 213 212 215 221 227 234 242 248 249 244 242 241 243 246 249 252 254 256 260 264 266 269 272 275 279 282 283 284 284 281 279 279 280 282 282 281 282 284 287 290 292 293 294 293 291 289 285 277 268 263 261 259 257 256 257 257 257 257 254 253 256 257 258 259 261 263 263 260 259 260 262 264 266 266
173 181 188 191 192 196 203 207 210 212 214 214 215 218 223 230 238 246 248 243 240 241 242 244 249 252 255 258 260 263 266 268 271 275 278 281 284 285 285 284 281 279 276 274 277 278 276 276 279 283 288 293 295 296 297 296 293 289 283 274 267 264 262 260 259 259 260 260 259 258 257 258 257 258 261 266 269 269 265 264 265 267 271 277 277
180 186 192 195 198 203 204 207 212 215 216 218 220 220 224 233 242 248 247 240 239 241 243 248 253 255 258 262 265 267 269 272 275 278 279 280 283 285 284 282 278 271 265 266 270 273 271 271 273 276 283 290 294 296 297 298 297 292 286 280 273 268 265 263 262 262 261 261 261 260 261 261 263 267 270 273 274 272 269 270 270 271 276 278 272
181 188 194 198 201 205 206 207 213 216 218 222 224 225 230 239 247 250 247 241 240 243 247 252 255 258 261 264 267 270 274 277 280 280 279 279 279 279 279 278 273 263 259 263 267 270 271 271 271 272 278 287 293 296 298 299 299 297 292 287 282 277 271 267 264 262 261 261 262 263 265 267 270 273 274 273 272 271 271 272 273 272 272 269 263
191 194 197 198 199 203 207 209 212 217 220 224 226 230 237 244 249 250 247 244 244 246 251 254 256 259 263 265 268 272 277 281 282 281 278 276 275 274 274 272 270 265 261 262 267 270 271 270 271 273 276 282 289 293 295 297 299 299 297 293 289 284 279 274 270 267 266 265 265 266 268 268 267 268 268 267 266 267 268 269 268 266 263 260 258
199 199 199 200 201 207 211 213 218 222 224 226 229 235 241 245 248 249 247 246 247 249 252 256 258 260 262 265 270 274 277 281 282 280 276 275 273 269 263 264 269 270 265 264 268 270 268 268 272 277 280 282 280 279 285 293 297 296 294 290 286 283 281 278 275 274 274 273 272 270 269 267 263 260 259 258 256 256 256 255 256 258 258 261 264
199 201 204 205 209 214 217 219 225 228 228 229 231 236 241 244 247 248 246 245 247 250 253 257 259 260 262 265 271 274 276 280 282 282 284 285 284 280 273 271 276 279 278 277 275 270 266 270 275 277 279 276 270 273 284 292 294 291 286 281 278 277 278 277 277 278 277 273 269 265 261 255 247 243 242 242 243 245 245 245 251 256 258 260 262
201 204 208 211 216 221 223 226 231 233 232 232 234 238 242 244 247 247 245 246 248 249 253 256 256 258 262 266 271 274 274 272 273 279 286 290 294 294 289 283 281 283 285 282 275 270 271 275 278 280 281 278 278 283 288 287 283 281 280 278 277 276 275 274 275 276 270 262 254 248 243 239 236 235 236 239 241 243 243 244 249 254 254 253 255
204 206 209 214 219 223 226 231 235 237 237 238 240 243 244 245 247 247 246 247 248 247 249 253 255 258 263 266 268 269 268 266 266 271 279 286 293 297 296 292 289 286 283 275 268 268 273 277 279 283 286 285 285 286 285 282 282 284 284 283 284 283 279 276 274 272 265 256 249 245 241 237 235 236 239 242 243 244 245 247 249 250 248 247 249